Regional Weather Roundup
Issued by NWS

Home | Current Version | Previous Version | Text Only | Print | Product List | Glossary On
Versions: 1 2 3 4 5 6 7 8 9 10 11 12 13 14 15 16 17 18 19 20 21 22 23 24 25 26 27 28 29 30 31 32 33 34 35 36 37 38 39 40 41 42 43 44 45 46 47 48 49 50
000
ASUS43 KOAX 271910
RWRNE

WEATHER ROUNDUP FOR NEBRASKA
NATIONAL WEATHER SERVICE OMAHA NE
200 PM CDT FRI MAR 27 2015

NOTES: SATELLITE DATA IS BEING USED TO AUGMENT CLOUD COVER ABOVE
       12000 FEET.
       "FAIR" INDICATES FEW OR NO CLOUDS BELOW 12,000 FEET WITH NO
       SIGNIFICANT WEATHER AND/OR OBSTRUCTIONS TO VISIBILITY.

  * THESE STATIONS DO NOT REPORT WEATHER SUCH AS RAIN...SNOW OR FOG.

NEZ001>004-019>022-054>056-272000-
NEBRASKA PANHANDLE

CITY           SKY/WX    TMP DP  RH WIND       PRES   REMARKS
SCOTTSBLUFF    MOSUNNY   67  38  34 NW17G24   30.05F
ALLIANCE       MOSUNNY   64  35  34 NW26G40   30.02F
CHADRON        SUNNY     66  39  37 NW20G33   30.00F
KIMBALL        MOSUNNY   63  32  31 NW14G28   30.08F
SIDNEY         PTSUNNY   64  36  35 NW22G35   30.08F
$$

NEZ057>060-069>072-079>082-272000-
SOUTHWEST NEBRASKA

CITY           SKY/WX    TMP DP  RH WIND       PRES   REMARKS
NORTH PLATTE   CLOUDY    48  35  60 SW14      30.08F
IMPERIAL         N/A     59  36  42 W9        30.06F
LEXINGTON      DRIZZLE   42  33  69 SW13G21   30.13F
MCCOOK         PTSUNNY   50  34  54 S16       30.11F
OGALLALA       MOSUNNY   63  39  41 NW10G22   30.03F
$$

NEZ005>010-023>029-035>040-094-272000-
NORTH CENTRAL NEBRASKA

CITY           SKY/WX    TMP DP  RH WIND       PRES   REMARKS
VALENTINE      CLOUDY    52  36  54 SW8       29.97F
AINSWORTH      CLOUDY    46  32  59 S16G23    30.02F
BROKEN BOW     CLOUDY    44  30  57 S20G28    30.08F
O`NEILL        LGT SNOW  33  31  95 S12       30.13F WCI  24
ORD            LGT SNOW  35  26  69 S15       30.12F WCI  25
THEDFORD       PTSUNNY   55  39  55 SW16G24   30.01F
$$

NEZ041-046>049-061>064-073>077-083>087-272000-
SOUTH CENTRAL NEBRASKA

CITY           SKY/WX    TMP DP  RH WIND       PRES   REMARKS
GRAND ISLAND   CLOUDY    37  23  56 S9        30.18F WCI  30
AURORA         CLOUDY    37  23  57 SW8       30.18F WCI  31
HASTINGS       CLOUDY    38  21  50 S8        30.17F WCI  32
HEBRON         CLOUDY    38  19  45 CALM      30.21F
HOLDREGE       CLOUDY    41  25  52 S12G21    30.15F
KEARNEY *      CLOUDY    37  25  60 S12       30.16F WCI  30
YORK           FAIR      36  25  64 S6        30.20F WCI  31
$$

NEZ011>018-030>034-042>045-272000-
NORTHEAST NEBRASKA

CITY           SKY/WX    TMP DP  RH WIND       PRES   REMARKS
NORFOLK        CLOUDY    34  21  59 S9        30.17F WCI  27
ALBION         CLOUDY    37  22  55 SW9       30.16F WCI  30
BLAIR          FAIR      38  15  38 SE6       30.19F WCI  33
COLUMBUS *     FAIR      36  19  51 S3        30.21F
FREMONT        FAIR      36  17  44 CALM      30.20F
TEKAMAH        FAIR      38  13  35 S3        30.21F
WAYNE          CLOUDY    35  17  48 S6        30.19F WCI  30
$$

NEZ050>053-065>068-078-088>093-272000-
SOUTHEAST NEBRASKA

CITY           SKY/WX    TMP DP  RH WIND       PRES   REMARKS
LINCOLN        FAIR      39  19  44 CALM      30.22F
OMAHA EPPLEY   CLOUDY    39  14  36 VRB3      30.22F
BEATRICE       PTSUNNY   38  21  49 SW5       30.21F WCI  35
FALLS CITY     FAIR      40  20  44 N6        30.23F
NEBRASKA CITY  FAIR      37  11  34 CALM      30.22F
PLATTSMOUTH    FAIR      36  12  36 CALM      30.21F
$$

NEZ044-045-051>053-067-272000-
OMAHA AREA

CITY           SKY/WX    TMP DP  RH WIND       PRES   REMARKS
OMAHA EPPLEY   CLOUDY    39  14  36 VRB3      30.22F
BLAIR          FAIR      38  15  38 SE6       30.19F WCI  33
FREMONT        FAIR      36  17  44 CALM      30.20F
MILLARD        FAIR      38  12  34 CALM      30.21F
OFFUTT AFB     FAIR      39  16  38 VRB5      30.21F
PLATTSMOUTH    FAIR      36  12  36 CALM      30.21F
WAHOO          FAIR      36  16  43 NE5       30.21F WCI  32
$$



USA.gov is the U.S. government's official web portal to all federal, state and local government web resources and services.